Edinburgh Airport, United Kingdom

11:18 PM GMT on February 09, 2016 (GMT +0000)
Edinburgh Airport

Weather History for EGPH - December, 2012

Change the Weather History Date:

Thursday, December 13, 2012

  Actual Average Record
Temperature  
Mean Temperature 30 °F -  
Max Temperature 35 °F 44 °F 57 °F (2013)
Min Temperature 26 °F 34 °F 23 °F (1999)
Degree Days  
Heating Degree Days 34    
Moisture  
Dew Point 28 °F    
Average Humidity 90    
Maximum Humidity 100    
Minimum Humidity 64    
Precipitation  
Precipitation 0.00 in 0.08 in - ()
Sea Level Pressure  
Sea Level Pressure 29.67 in    
Wind  
Wind Speed 1 mph ()    
Max Wind Speed 8 mph    
Max Gust Speed -    
Visibility 4.2 miles    
Events Snow    
Averages and records for this station are not official NWS values.
T = Trace of Precipitation, MM = Missing Value Source: Averaged Metar Reports

Daily Weather History Graph

Daily Weather History Graph

Search for Another Location

Airport or City:

Trip Planner

Search our weather history database for the weather conditions in past years. The results will help you decide how hot, cold, wet, or windy it might be!

Date:

Astronomy

Dec. 13, 2012 Rise Set
Actual Time 8:36 AM GMT 3:38 PM GMT
Civil Twilight 7:49 AM GMT 4:25 PM GMT
Nautical Twilight 7:00 AM GMT 5:14 PM GMT
Astronomical Twilight 6:15 AM GMT 6:00 PM GMT
Moon 8:26 AM GMT (12/13) 4:09 PM GMT (12/13)
Length of Visible Light 8h 36m
Length of Day
7h 01m
New Moon, 0% of the Moon is Illuminated
Dec 13
New Moon
Dec 20
First Quarter
Dec 28
Full
Jan 5
Last Quarter
Jan 11
New

Hourly Weather History & Observations

Time (GMT) Temp. Windchill Dew Point Humidity Pressure Visibility Wind Dir Wind Speed Gust Speed Precip Events Conditions
12:20 AM 26.6 °F - 26.6 °F 100% 29.83 in 2.8 mi Calm Calm - N/A   Partly Cloudy
12:50 AM 28.4 °F - 26.6 °F 93% 29.83 in - Calm Calm - N/A   Partly Cloudy
1:20 AM 28.4 °F - 26.6 °F 93% 29.80 in - Calm Calm - N/A   Mist
1:50 AM 28.4 °F - 26.6 °F 93% 29.80 in 3.1 mi Calm Calm - N/A   Scattered Clouds
2:20 AM 28.4 °F - 26.6 °F 93% 29.80 in 3.1 mi Calm Calm - N/A   Scattered Clouds
2:50 AM 28.4 °F - 28.4 °F 100% 29.80 in - Calm Calm - N/A   Partly Cloudy
3:20 AM 28.4 °F - 28.4 °F 100% 29.80 in - SE 2.3 mph - N/A Snow Snow Grains
3:50 AM 28.4 °F - 28.4 °F 100% 29.77 in - SE 2.3 mph - N/A   Light Ice Pellets
4:20 AM 28.4 °F - 28.4 °F 100% 29.77 in - Calm Calm - N/A Snow Light Snow
4:50 AM 30.2 °F - 28.4 °F 93% 29.77 in 2.5 mi Calm Calm - N/A Snow Light Snow
5:20 AM 28.4 °F - 28.4 °F 100% 29.74 in - Calm Calm - N/A Snow Light Snow
5:50 AM 30.2 °F - 28.4 °F 93% 29.74 in 3.7 mi Calm Calm - N/A Snow Light Snow
6:20 AM 30.2 °F - 28.4 °F 93% 29.74 in 3.7 mi Calm Calm - N/A Snow Light Snow
6:50 AM 30.2 °F - 28.4 °F 93% 29.74 in 4.3 mi Calm Calm - N/A Snow Light Snow
7:20 AM 30.2 °F - 30.2 °F 100% 29.71 in 3.7 mi NNW 2.3 mph - N/A Snow Light Snow
7:50 AM 30.2 °F - 28.4 °F 93% 29.71 in 2.8 mi Calm Calm - N/A   Mist
8:20 AM 30.2 °F - 28.4 °F 93% 29.71 in 4.3 mi Calm Calm - N/A   Unknown
8:50 AM 30.2 °F - 30.2 °F 100% 29.71 in 3.7 mi Calm Calm - N/A   Unknown
9:20 AM 30.2 °F - 30.2 °F 100% 29.71 in 5.0 mi Calm Calm - N/A   Unknown
9:50 AM 30.2 °F - 30.2 °F 100% 29.71 in 4.3 mi Calm Calm - N/A   Unknown
10:20 AM 32.0 °F - 30.2 °F 93% 29.71 in 4.3 mi Calm Calm - N/A   Partly Cloudy
10:50 AM 32.0 °F - 30.2 °F 93% 29.71 in 4.3 mi Calm Calm - N/A   Partly Cloudy
11:20 AM 32.0 °F - 32.0 °F 100% 29.71 in 6.2 mi SW 2.3 mph - N/A   Unknown
11:50 AM 32.0 °F - 32.0 °F 100% 29.68 in 5.6 mi Calm Calm - N/A   Mostly Cloudy
12:20 PM 33.8 °F - 32.0 °F 93% 29.68 in 5.0 mi Calm Calm - N/A   Unknown
12:50 PM 33.8 °F - 32.0 °F 93% 29.65 in 5.6 mi North 2.3 mph - N/A   Unknown
1:20 PM 33.8 °F - 32.0 °F 93% 29.65 in 5.6 mi Calm Calm - N/A   Unknown
1:50 PM 33.8 °F 30.8 °F 32.0 °F 93% 29.65 in - ENE 3.5 mph - N/A   Clear
2:20 PM 33.8 °F 29.6 °F 32.0 °F 93% 29.62 in - ENE 4.6 mph - N/A   Clear
2:50 PM 33.8 °F 28.6 °F 30.2 °F 87% 29.62 in - ENE 5.8 mph - N/A   Clear
3:20 PM 35.6 °F - 30.2 °F 81% 29.62 in - Variable 2.3 mph - N/A   Clear
3:50 PM 32.0 °F 28.7 °F 30.2 °F 93% 29.59 in - ENE 3.5 mph - N/A   Clear
4:20 PM 32.0 °F 28.7 °F 30.2 °F 93% 29.59 in - Variable 3.5 mph - N/A   Clear
4:50 PM 32.0 °F 28.7 °F 28.4 °F 87% 29.59 in - Variable 3.5 mph - N/A   Clear
5:20 PM 32.0 °F - 28.4 °F 87% 29.59 in - Variable 2.3 mph - N/A   Clear
5:50 PM 32.0 °F - 26.6 °F 80% 29.59 in - Calm Calm - N/A   Clear
6:20 PM 32.0 °F 28.7 °F 26.6 °F 80% 29.59 in - NNE 3.5 mph - N/A   Clear
6:50 PM 30.2 °F - 26.6 °F 86% 29.56 in - Calm Calm - N/A   Clear
7:20 PM 30.2 °F 24.3 °F 24.8 °F 80% 29.56 in - NE 5.8 mph - N/A   Clear
7:50 PM 30.2 °F 26.7 °F 24.8 °F 80% 29.56 in - East 3.5 mph - N/A   Clear
8:20 PM 28.4 °F - 23.0 °F 80% 29.56 in - Calm Calm - N/A   Clear
8:50 PM 30.2 °F - 19.4 °F 64% 29.53 in - Variable 2.3 mph - N/A   Clear
9:20 PM 28.4 °F 20.4 °F 19.4 °F 69% 29.53 in - East 8.1 mph - N/A   Clear
9:50 PM 28.4 °F 20.4 °F 19.4 °F 69% 29.53 in - East 8.1 mph - N/A   Clear
11:20 PM 30.2 °F 22.6 °F 23.0 °F 75% 29.50 in - East 8.1 mph - N/A   Clear
11:50 PM 30.2 °F 24.3 °F 24.8 °F 80% 29.50 in - East 5.8 mph - N/A   Clear